This demonstration page uses our WeatherBlox Daily Observations layout. Learn more.

Left ArrowRight Arrow

38.80484, -77.04692

Hourly Observations for September 18, 2020

Temp ( °F °C ) Dew Point ( °F °C ) Humidity (%) Winds ( mph kmh ) Pressure ( in mb ) Visibility ( mi km ) Precip ( " mm )
12:21 am 00:21 Cloudy 71 21.7 67 19.4 87 87 ENE 5 7 29.94 1014 10 16 0.01 0.25
12:32 am 00:32 Cloudy 69 20.6 67 19.4 93 93 ENE 6 9 29.93 1013 10 16 0.01 0.25
12:40 am 00:40 Cloudy 69 20.6 67 19.4 93 93 ENE 6 9 29.93 1013 10 16 0.01 0.25
12:47 am 00:47 Cloudy 70 21 66 19 88 88 ENE 5 7 29.93 1013 10 16 0.01 0.25
12:52 am 00:52 Cloudy 69 20.6 67 19.4 93 93 NE 5 7 29.93 1013 10 16 0.01 0.25
1:10 am 01:10 Cloudy with Light Rain 68 20 66 18.9 93 93 NE 7 11 29.93 1014 4 6 0.00 0.00
1:14 am 01:14 Cloudy with Light Rain 68 20 66 18.9 93 93 NE 5 7 29.92 1013 3 4 0.00 0.00
1:28 am 01:28 Cloudy with Light Rain 68 20 67 19.4 96 96 NE 6 9 29.92 1013 6 10 0.02 0.51
1:52 am 01:52 Cloudy with Light Rain 68 20 67 19.4 96 96 NNE 5 7 29.91 1013 3 5 0.05 1.27
2:52 am 02:52 Cloudy 69 20.6 67 19.4 93 93 NNE 6 9 29.90 1013 10 16 0.00 0.00
3:52 am 03:52 Cloudy 68 20 65 18.3 90 90 NE 7 11 29.89 1012 10 16 0.02 0.51
4:10 am 04:10 Cloudy 68 20 65 18.3 90 90 NE 8 13 29.90 1012 10 16 N/A
4:52 am 04:52 Cloudy 68 20 65 18.3 90 90 N 8 13 29.88 1012 10 16 N/A
5:15 am 05:15 Cloudy 68 20 65 18.3 90 90 N 7 11 29.89 1012 10 16 N/A
5:39 am 05:39 Cloudy 68 20 66 18.9 93 93 N 7 11 29.90 1012 10 16 N/A
5:52 am 05:52 Cloudy 69 20.6 66 18.9 90 90 N 10 17 29.90 1012 10 16 N/A
6:18 am 06:18 Cloudy 68 20 65 18.3 90 90 N 10 17 29.90 1012 8 13 N/A
6:29 am 06:29 Mostly Cloudy 67 19.4 64 17.8 91 91 N 9 15 29.90 1012 8 13 N/A
6:52 am 06:52 Partly Cloudy 67 19.4 63 17.2 87 87 N 12 19 29.90 1013 9 14 N/A
7:52 am 07:52 Mostly Cloudy 66 18.9 62 16.7 87 87 N 13 20 29.91 1013 7 11 N/A
8:52 am 08:52 Mostly Cloudy 66 18.9 61 16.1 84 84 N 13 20 29.93 1014 9 14 N/A
9:52 am 09:52 Mostly Cloudy 68 20 62 16.7 81 81 NNE 13 20 29.95 1014 10 16 N/A
10:52 am 10:52 Mostly Cloudy 70 21.1 62 16.7 76 76 N 13 20 29.97 1015 10 16 N/A
11:28 am 11:28 Mostly Cloudy 69 20.6 61 16.1 76 76 N 14 22 29.98 1015 10 16 N/A
11:52 am 11:52 Mostly Cloudy 69 20.6 61 16.1 76 76 N 17 28 29.98 1015 10 16 N/A
12:52 pm 12:52 Cloudy 70 21.1 61 16.1 73 73 N 15 24 29.98 1015 10 16 N/A
1:52 pm 13:52 Cloudy 71 21.7 60 15.6 68 68 N 14 22 29.98 1015 10 16 N/A
2:08 pm 14:08 Cloudy 73 22.8 59 15 62 62 N 15 24 29.98 1015 10 16 N/A
2:52 pm 14:52 Cloudy 74 23.3 60 15.6 62 62 N 10 17 29.97 1015 10 16 N/A
3:52 pm 15:52 Partly Cloudy 75 23.9 57 13.9 54 54 NNW 16 26 29.97 1015 10 16 N/A
4:52 pm 16:52 Mostly Cloudy 74 23.3 53 11.7 48 48 NNW 15 24 29.98 1015 10 16 N/A
5:52 pm 17:52 Mostly Cloudy 71 21.7 51 10.6 49 49 N 14 22 30.00 1016 10 16 N/A
6:52 pm 18:52 Partly Cloudy 69 20.6 52 11.1 55 55 N 8 13 30.02 1017 10 16 N/A
7:52 pm 19:52 Mostly Clear 68 20 50 10 53 53 NNE 12 19 30.05 1018 10 16 N/A
8:52 pm 20:52 Mostly Clear 66 18.9 49 9.4 54 54 N 12 19 30.08 1019 10 16 N/A
9:52 pm 21:52 Partly Cloudy 66 18.9 47 8.3 50 50 N 14 22 30.11 1020 10 16 N/A
10:52 pm 22:52 Mostly Clear 64 17.8 44 6.7 48 48 NNE 20 31 30.14 1021 10 16 N/A
11:52 pm 23:52 Mostly Clear 62 16.7 41 5 46 46 NNE 17 28 30.17 1022 10 16 N/A

Powered by AerisWeather